Volver al catálogo

STARLINK-35721

ActivoComunicacionesVLEO
NORAD 67046·PAYLOAD·🇺🇸 United States

Lanzado Dec 11, 2025 desde Cape Canaveral Space Force Station

Loading…

Próximos Pases (próximas 24 horas)

TLE

ActualizadoSource: CelesTrak SupGP

Época: Sep 14, 2026, 21:34 UTC

1 67046C 25294S   26257.89909722  .00048353  00000+0  17514-2 0  2572
2 67046  43.0032  49.7098 0001782 274.8035 101.8518 15.27552932    17

Sigue STARLINK-35721 en tiempo real con AllMySat

Download on the App Store